Location: Morrison Observatory
(41.7012°N, 86.2315°W)
Time: 06:19:22
(UTC-04:00)

Daily predictions for brighter satellites

Satellite Brightness Start Highest point End
(mag) Time Altitude Azimuth Time Altitude Azimuth Time Altitude Azimuth
ATLAS CENTAUR R/B 2.9 20:48:17 10° SW 20:53:12 53° NW 20:58:03 10° NNE
Cosmos 1544 Rocket 3.9 20:51:25 10° SSE 20:55:31 42° E 20:59:41 10° NNE
Okean 1 Rocket 4.4 20:52:32 10° SSW 20:56:45 46° WNW 21:00:58 10° N
Cosmos 968 Rocket 3.8 20:57:35 10° NNW 21:02:43 72° WSW 21:07:47 10° S
FengYun 1-2 T 4.4 20:58:21 10° SSE 21:04:00 85° WSW 21:09:40 10° NNW
CZ-2D R/B 3.3 21:01:50 10° SSE 21:05:37 60° ENE 21:09:27 10° N
NOSS 2-1 (D) 3.3 21:04:40 10° SSW 21:08:32 80° SE 21:12:54 10° NE
Hubble Space Telescope 3.1 21:07:27 10° SSW 21:09:12 12° S 21:10:55 10° SSE
NOSS 2-1 (C) 3.3 21:05:42 10° SSW 21:09:33 80° ESE 21:13:56 10° NE
ERS-1 Rocket 3.9 21:08:07 10° SE 21:12:28 31° ENE 21:16:51 10° N
Cosmos 1821 Rocket 3.9 21:07:24 10° S 21:13:31 79° E 21:19:37 10° N
Cosmos 1633 3.5 21:12:50 10° SSW 21:16:25 53° W 21:20:01 10° N
Cosmos 1605 Rocket 4.3 21:10:23 10° SSE 21:16:26 48° E 21:22:26 10° NNE
Cosmos 1536 3.5 21:12:40 10° SSW 21:16:36 58° W 21:20:35 10° N
Cosmos 1346 Rocket 2.9 21:13:06 10° N 21:16:58 52° ENE 21:20:51 10° SSE
Meteor 2-16 Rocket 4.4 21:15:24 10° S 21:21:26 74° E 21:27:30 10° NNE
NOSS 2-1 (E) 3.6 21:21:39 10° SW 21:25:32 77° NW 21:30:04 10° NNE
Cosmos 2227 Rocket 2.4 21:21:44 10° NNW 21:27:21 57° ENE 21:32:24 13° SE
YAOGAN 11 4.5 21:26:25 10° SE 21:30:41 47° ENE 21:35:00 10° N
Meteor 1-5 Rocket 4.1 21:27:42 10° S 21:33:01 90° E 21:38:29 10° N
ALOS 2.8 21:28:33 10° S 21:33:10 61° W 21:37:49 10° NNW
FENGYUN 3A 4.0 21:28:34 10° S 21:33:53 68° WSW 21:39:14 10° NNW
Cosmos 1500 4.3 21:34:20 19° ESE 21:35:46 23° E 21:38:48 10° NE
Cosmos 2082 3.7 21:34:22 10° NNW 21:40:00 68° ENE 21:44:33 16° SE
Cosmos 1656 4.2 21:35:26 10° S 21:40:30 36° ESE 21:45:33 10° NE
Cosmos 2297 Rocket 2.4 21:37:38 10° NNW 21:43:12 55° ENE 21:47:09 19° SE
Cosmos 2123 Rocket 4.0 21:38:23 10° N 21:44:36 85° W 21:50:46 10° S
USA 215 4.4 21:42:02 11° E 21:47:39 34° NNE 21:53:22 10° NW
Lacrosse 5 3.2 21:44:02 10° NNW 21:48:25 29° NNE 21:51:36 16° E
H-2A R/B 2.7 21:49:23 25° ESE 21:50:59 34° ENE 21:54:44 10° N
Cosmos 2208 Rocket 4.2 21:45:50 10° SSW 21:51:07 77° WNW 21:56:33 10° NNE
SPOT 5 3.6 21:52:31 23° ESE 21:54:54 36° ENE 21:59:22 10° N
deb Chang Zheng 4 4.2 21:50:55 10° NNE 21:55:03 37° E 21:57:05 24° SSE
Cosmos 1626 Rocket 3.5 21:50:46 10° N 21:55:12 75° E 21:58:22 18° SSE
Cosmos 1515 3.8 21:53:49 10° N 21:57:36 54° E 21:59:10 31° SE
Cosmos 2298 Rocket 4.3 21:53:07 10° N 21:58:17 49° ENE 22:00:55 27° SE
Cosmos 1455 Rocket 4.0 21:55:25 10° SSW 21:59:36 49° WNW 22:03:50 10° N
Cosmos 1975 2.7 21:56:24 10° S 22:00:30 82° E 22:04:37 10° N
BREEZE-M DEB (TANK) 4.4 21:56:12 10° SW 22:00:33 85° SE 22:17:38 10° ENE
Cosmos 1459 Rocket 4.2 21:59:01 18° SSE 22:03:05 44° E 22:08:49 10° NNE
Cosmos 1602 Rocket 3.5 21:58:40 10° N 22:03:09 89° W 22:06:22 19° S
NOSS 3-4 (A) 4.2 21:57:49 10° NW 22:04:46 64° WSW 22:10:47 16° SSE
NOSS 3-4 (C) 4.1 21:57:56 10° NW 22:04:54 64° WSW 22:10:52 16° SSE
Cosmos 1743 3.7 22:06:26 30° E 22:06:26 30° E 22:09:33 10° NNE
H-2A R/B 3.8 22:10:13 15° ENE 22:10:46 15° ENE 22:13:29 10° NNE
Cosmos 1153 Rocket 4.4 22:05:40 10° S 22:11:53 90° ENE 22:18:04 10° N
Cosmos 1461 3.2 22:08:04 10° NW 22:12:04 58° WSW 22:13:43 31° S
YAOGAN 6 3.4 22:12:12 33° ENE 22:12:12 33° ENE 22:15:34 10° N
Lacrosse 5 rocket 0.9 22:08:55 10° NW 22:12:39 79° NE 22:13:22 54° ESE
Cosmos 1066 Rocket 4.2 22:07:22 10° N 22:12:59 67° ENE 22:16:05 28° SSE
Envisat 2.9 22:11:14 23° SSE 22:14:25 87° ENE 22:19:31 10° NNW
CZ-4 DEB 4.0 22:14:53 21° SSW 22:16:31 39° W 22:19:31 10° NNW
Tiangong 1 1.1 22:13:30 10° W 22:16:35 69° N 22:16:48 65° NNE
MetOp-A 4.3 22:15:54 34° SE 22:18:00 55° ENE 22:23:14 10° N
Cosmos 1937 Rocket 3.8 22:14:22 10° N 22:19:30 49° ENE 22:21:02 38° ESE
Cosmos 1697 Rocket 2.6 22:17:28 10° S 22:23:01 60° ESE 22:28:35 10° NNE
Cosmos 1802 Rocket 4.1 22:20:59 26° SSE 22:24:36 58° E 22:30:53 10° NNE
OTV 4 2.3 22:22:16 10° WSW 22:23:53 23° SW 22:23:53 23° SW
Cosmos 2150 Rocket 3.9 22:20:25 10° NNW 22:25:34 74° ENE 22:27:16 43° SE
DELTA 2 R/B (1) 3.6 22:22:44 10° W 22:28:14 63° S 22:29:48 44° SE
SPOT 1/Viking Rocket 4.0 22:28:06 39° ESE 22:29:09 45° ENE 22:34:05 10° N
Cosmos 1939 Rocket 3.6 22:28:30 26° SSW 22:30:33 51° W 22:34:38 10° NNW
ASTEX 1 3.5 22:27:16 10° NNE 22:32:13 57° E 22:33:04 50° SE
Cosmos 2084 3.3 22:28:58 10° NNW 22:33:02 68° NE 22:33:22 64° E
SL-08 RB Rocket 4.5 22:35:12 36° ENE 22:35:12 36° ENE 22:39:28 10° N
Iridium 4 Rocket 4.4 22:30:20 10° NNW 22:35:19 46° W 22:39:24 13° SSW
Cosmos 990 Rocket 4.2 22:31:52 10° N 22:37:00 52° ENE 22:37:48 47° E
Cosmos 1606 Rocket 3.7 22:38:13 53° ENE 22:38:13 53° ENE 22:42:11 10° NNE
Terra 3.4 22:40:15 21° ENE 22:40:15 21° ENE 22:43:21 10° NNE
OAO 2 Rocket 4.1 22:39:05 10° WSW 22:42:57 35° SSW 22:42:57 35° SSW
Cosmos 1980 Rocket 2.2 22:44:07 53° SE 22:44:39 55° ESE 22:50:13 10° NNE
CZ-4B R/B 4.0 22:40:33 10° NNE 22:44:01 38° ENE 22:44:01 38° ENE
Cosmos 2016 Rocket 3.8 22:43:28 41° SSE 22:45:39 70° E 22:51:48 10° NNE
ARGOS 3.1 22:49:32 58° ESE 22:50:14 64° ENE 22:55:35 10° N
ERS-1 Rocket 4.5 22:47:32 14° SSW 22:51:11 32° W 22:55:39 10° NW
Cosmos 1898 Rocket 3.9 22:48:10 10° NNW 22:53:24 59° WSW 22:54:53 43° SSW
Meteor 1-21 4.2 22:49:49 10° N 22:55:37 86° E 22:56:52 57° SSE
Cosmos 2173 Rocket 4.2 22:53:55 18° SSW 22:58:43 70° W 23:05:04 10° N
Cosmos 1125 Rocket 4.4 22:54:48 10° N 22:59:15 34° NE 22:59:15 34° NE
RESURS DK-1 2.6 22:55:43 10° NNW 22:59:18 65° NNW 22:59:18 65° NNW
Cosmos 1726 Rocket 3.8 23:03:16 61° N 23:03:16 61° N 23:06:56 10° N
Cosmos 1763 Rocket 3.5 23:04:53 63° NE 23:04:53 63° NE 23:09:16 10° NNE
Cosmos 2061 Rocket 4.4 23:00:39 18° SSW 23:05:23 62° W 23:11:37 10° N
SL-19 R/B 4.1 23:02:10 10° NNE 23:07:43 85° WNW 23:08:46 60° SSW
Cosmos 2227 Rocket 4.3 23:06:52 10° NW 23:10:53 20° W 23:14:15 12° SW
Tsikada Rocket 3.9 23:05:26 10° N 23:11:53 72° E 23:12:34 66° SE
Cosmos 1864 Rocket 4.3 23:12:32 71° SE 23:13:00 75° E 23:19:08 10° N
Cosmos 2263 Rocket 3.6 23:10:15 10° N 23:14:41 24° NE 23:14:41 24° NE
Cosmos 1825 Rocket 4.4 23:11:02 10° NNW 23:15:15 43° W 23:15:24 43° W
Cosmos 2322 Rocket 3.8 23:18:34 21° NE 23:18:34 21° NE 23:20:37 10° NE
Cosmos 967 Rocket 4.3 23:11:20 10° NNW 23:17:43 81° ENE 23:18:16 74° ESE
Cosmos 2360 4.3 23:19:45 63° NE 23:19:45 63° NE 23:24:38 10° NNE
Cosmos 1953 Rocket 4.4 23:19:17 10° NNW 23:23:10 47° WNW 23:23:10 47° WNW
Cosmos 841 Rocket 3.6 23:24:40 68° N 23:24:40 68° N 23:29:14 10° NNE
Meteor 2-9 Rocket 4.1 23:24:45 83° NNW 23:24:45 83° NNW 23:30:02 10° N
Milstar 3 Cent rocket 4.2 23:09:55 10° W 23:24:56 38° SSW 23:26:28 37° S
Cosmos 2297 Rocket 4.1 23:22:40 10° NW 23:26:46 21° W 23:28:59 17° SW
H-2A R/B 4.1 23:26:32 18° WSW 23:27:07 19° W 23:30:03 10° NW
Cosmos 2227 4.2 23:22:28 10° NNW 23:28:06 81° W 23:28:06 81° W
USA 215 3.1 23:29:23 72° ESE 23:30:08 85° NE 23:36:43 10° NW
Lacrosse 5 2.4 23:26:43 10° NW 23:30:47 53° WNW 23:30:47 53° WNW
BREEZE-M TANK 4.4 23:35:25 10° WNW 23:38:58 25° W 23:38:58 25° W
Cosmos 1816 Rocket 4.4 23:34:18 10° N 23:40:44 87° W 23:40:44 87° W
Cosmos 1725 Rocket 4.2 23:42:15 57° WSW 23:43:06 63° W 23:49:19 10° N
H-2A R/B 2.7 23:50:52 50° NW 23:50:52 50° NW 23:54:35 10° NNW
